"startDT [UTC]","vpos","CH4 [ppm]","stdev(CH4) [ppm]","CO2 [ppm]","stdev(CO2) [ppm]","H2O_reported [%]","stdev(H2O_reported)","CavityPressure [torr]","CavityTemp [C]","OutletValve","CH4_dry [ppm]","CO2_dry [ppm]","DasTemp [C]","EtalonTemp [C]","WarmBoxTemp [C]","MPVPosition","T_ECpre [C]","T_EC1 [C]","T_EC2 [C]","p_inlet [hPa]","p_in [hPa]","p_out [hPa]","T_inlet [C]","RH_inlet [%]","dwpt_inlet [C]","T_vent [C]","RH_vent [%]","dwpt_vent [C]","flow_vent [l min-1]","flow_inlet [l min-1]","dwpt_sample [C]","T_room [C]"
2016-08-18 00:00:00,3.0,1.88127,0.01880,395.725,3.455,0.2069,0.3230,139.965,45.000,31534.06437,1.88763,396.677,40.013,45.068,45.000,0.00,0.09,-272.77,-272.83,-10,470,-949,23.2,27.6,3.5,23.4,27.8,3.8,5.73,1.65,2.4,30.0
2016-08-18 00:01:00,3.0,1.87567,0.00036,396.957,0.101,0.0353,0.0024,139.998,45.000,31503.94367,1.87632,397.121,40.054,45.068,45.000,0.00,0.09,-272.78,-272.84,-10,469,-949,23.3,27.2,3.3,23.5,27.5,3.6,5.73,1.79,2.4,30.0
2016-08-18 00:02:00,3.0,1.87554,0.00034,397.281,0.060,0.0315,0.0018,139.999,45.000,31493.69447,1.87612,397.428,40.064,45.068,45.000,0.00,0.09,-272.78,-272.84,-11,469,-949,23.3,27.4,3.5,23.5,27.4,3.6,5.73,1.90,2.4,30.0
2016-08-18 00:03:00,3.0,1.87557,0.00038,397.390,0.034,0.0272,0.0022,139.999,45.000,31485.79884,1.87607,397.520,40.063,45.068,45.000,0.00,0.09,-272.78,-272.83,-10,469,-949,23.4,27.3,3.4,23.5,27.5,3.7,5.73,1.77,2.4,30.0
2016-08-18 00:04:00,3.0,1.87571,0.00032,397.409,0.026,0.0211,0.0020,140.000,45.000,31480.32249,1.87610,397.511,40.063,45.068,45.000,0.00,0.09,-272.78,-272.84,-10,469,-949,23.4,27.6,3.6,23.5,27.6,3.8,5.73,1.68,2.4,30.1
2016-08-18 00:05:00,3.0,1.87564,0.00024,397.442,0.033,0.0163,0.0015,139.998,45.000,31475.86278,1.87595,397.519,40.062,45.068,45.000,0.00,0.09,-272.78,-272.84,-11,469,-949,23.4,27.8,3.7,23.5,28.1,4.0,5.73,1.82,2.4,30.1
2016-08-18 00:06:00,3.0,1.87557,0.00030,397.457,0.032,0.0125,0.0013,139.998,45.000,31473.56060,1.87579,397.516,40.045,45.068,45.000,0.00,0.09,-272.77,-272.84,-10,469,-949,23.4,27.5,3.6,23.6,27.7,3.8,5.73,1.89,2.4,30.1
2016-08-18 00:07:00,3.0,1.87582,0.00034,397.483,0.037,0.0105,0.0018,139.999,45.000,31470.21493,1.87601,397.534,40.059,45.068,45.000,0.00,0.09,-272.78,-272.84,-10,469,-949,23.4,27.1,3.4,23.6,27.4,3.7,5.73,1.75,2.4,30.1
2016-08-18 00:08:00,3.0,1.87617,0.00033,397.501,0.035,0.0090,0.0015,140.000,45.000,31466.24854,1.87633,397.543,40.059,45.068,45.000,0.00,0.09,-272.75,-272.83,-11,469,-949,23.5,27.3,3.6,23.6,27.5,3.8,5.73,1.69,2.4,30.1
2016-08-18 00:09:00,3.0,1.87606,0.00039,397.507,0.023,0.0078,0.0024,140.001,45.000,31465.74002,1.87620,397.544,40.061,45.068,45.000,0.00,0.09,-272.76,-272.88,-11,469,-949,23.5,27.3,3.6,23.6,27.5,3.8,5.73,1.84,2.4,30.1
2016-08-18 00:10:00,3.0,1.87589,0.00018,397.516,0.027,0.0065,0.0021,140.000,45.000,31464.79674,1.87602,397.546,40.062,45.068,45.000,0.00,0.09,-272.78,-272.84,-10,470,-949,23.5,27.2,3.6,23.6,27.5,3.8,5.73,1.89,2.4,30.1
2016-08-18 00:11:00,3.0,1.87598,0.00052,397.537,0.026,0.0055,0.0020,140.000,45.000,31463.34613,1.87611,397.563,40.064,45.068,45.000,0.00,0.09,-272.78,-272.84,-11,470,-949,23.6,27.2,3.6,23.7,27.5,3.8,5.73,1.73,2.4,30.2
2016-08-18 00:12:00,3.0,1.87592,0.00041,397.551,0.034,0.0051,0.0021,140.002,45.000,31463.87047,1.87599,397.576,40.066,45.068,45.000,0.00,0.09,-272.78,-272.84,-11,470,-949,23.6,27.3,3.7,23.7,27.6,3.9,5.73,1.70,2.4,30.2
2016-08-18 00:13:00,3.0,1.87607,0.00038,397.562,0.031,0.0052,0.0016,139.999,45.000,31460.96485,1.87616,397.586,40.067,45.068,45.000,0.00,0.09,-272.77,-272.83,-10,470,-949,23.6,27.4,3.7,23.7,27.7,4.0,5.73,1.86,2.6,30.2
2016-08-18 00:14:00,3.0,1.87613,0.00044,397.552,0.035,0.0043,0.0019,139.998,45.000,31461.11569,1.87621,397.574,40.075,45.068,45.000,0.00,0.09,-272.78,-272.85,-11,470,-949,23.7,27.4,3.8,23.8,27.6,4.0,5.73,1.88,3.3,30.2
2016-08-18 00:15:00,3.0,1.87625,0.00028,397.543,0.032,0.0037,0.0019,139.999,45.000,31462.44786,1.87631,397.559,40.071,45.068,45.000,0.00,0.09,-272.79,-272.82,-11,470,-949,23.7,27.1,3.7,23.8,27.5,3.9,5.73,1.72,3.2,30.2
2016-08-18 00:16:00,3.0,1.87613,0.00030,397.575,0.043,0.0034,0.0022,140.003,45.000,31464.26114,1.87620,397.592,40.088,45.068,45.000,0.00,0.09,-272.79,-272.83,-10,470,-949,23.8,27.1,3.7,23.8,27.4,3.9,5.73,1.71,3.2,30.2
2016-08-18 00:17:00,3.0,1.87631,0.00036,397.558,0.029,0.0032,0.0024,140.001,45.000,31463.29339,1.87635,397.574,40.083,45.068,45.000,0.00,0.09,-272.78,-272.84,-11,471,-949,23.8,27.0,3.6,23.9,27.4,3.9,5.73,1.87,3.1,30.3
2016-08-18 00:18:00,3.0,1.87629,0.00032,397.572,0.031,0.0024,0.0016,139.999,45.000,31461.56927,1.87634,397.584,40.118,45.068,45.000,0.00,0.09,-272.78,-272.84,-12,471,-949,23.8,26.6,3.5,23.9,27.1,3.8,5.73,1.87,3.0,30.3
2016-08-18 00:19:00,3.0,1.87639,0.00033,397.569,0.033,0.0038,0.0013,140.000,45.000,31465.19628,1.87648,397.586,40.123,45.068,45.000,0.00,0.09,-272.77,-272.84,-10,471,-949,23.9,26.5,3.5,23.9,26.8,3.7,5.73,1.71,3.0,30.3
2016-08-18 00:20:00,0.0,1.92803,0.01798,388.927,3.570,0.8284,0.3307,140.019,45.000,31882.80056,1.94185,392.961,40.125,45.068,45.000,0.00,0.09,-272.76,-272.83,-12,532,-949,23.9,26.7,3.6,24.0,27.2,3.9,5.73,1.69,2.9,30.3
2016-08-18 00:21:00,0.0,1.93404,0.00037,386.975,0.241,0.9999,0.0151,140.002,45.000,31924.47322,1.95371,391.781,40.125,45.068,45.000,0.00,0.09,-272.78,-272.84,-13,533,-948,24.0,26.7,3.6,24.0,27.0,3.8,5.73,1.96,2.9,30.3
2016-08-18 00:22:00,0.0,1.93393,0.00045,387.273,0.170,0.9867,0.0086,140.002,45.000,31935.01493,1.95331,392.018,40.124,45.068,45.000,0.00,0.09,-272.78,-272.84,-12,534,-948,24.0,26.1,3.3,24.0,26.8,3.8,5.73,1.73,2.9,30.3
2016-08-18 00:23:00,0.0,1.93287,0.00160,387.151,0.152,0.9799,0.0062,140.000,45.000,31941.69590,1.95226,391.864,40.123,45.068,45.000,0.00,0.10,-272.77,-272.84,-14,534,-948,24.0,25.7,3.2,24.0,26.3,3.5,5.73,1.78,2.8,30.4
2016-08-18 00:24:00,0.0,1.92850,0.00183,386.974,0.236,0.9661,0.0044,139.997,45.000,31947.80566,1.94757,391.621,40.122,45.068,45.000,0.00,0.09,-272.77,-272.84,-12,534,-948,24.0,25.3,3.0,24.1,25.9,3.3,5.73,1.96,2.8,30.4
2016-08-18 00:25:00,0.0,1.92196,0.00159,386.376,0.076,0.9619,0.0105,140.000,45.000,31955.08843,1.94088,390.993,40.123,45.068,45.000,0.00,0.09,-272.78,-272.85,-13,535,-948,24.0,25.1,2.9,24.1,25.7,3.2,5.73,1.72,2.8,30.3
2016-08-18 00:26:00,0.0,1.92060,0.00045,386.091,0.083,0.9739,0.0069,140.001,45.000,31961.35438,1.93959,390.758,40.124,45.068,45.000,0.00,0.09,-272.77,-272.84,-13,535,-948,24.0,25.5,3.1,24.1,25.6,3.2,5.73,1.79,2.8,30.3
2016-08-18 00:27:00,0.0,1.92014,0.00026,385.904,0.068,0.9899,0.0050,139.998,45.000,31964.60133,1.93945,390.646,40.129,45.068,45.000,0.00,0.09,-272.77,-272.83,-12,535,-948,24.1,25.8,3.3,24.1,26.0,3.4,5.73,1.95,2.8,30.4
2016-08-18 00:28:00,0.0,1.91993,0.00039,386.018,0.044,0.9748,0.0030,140.001,45.000,31971.25055,1.93893,390.688,40.133,45.068,45.000,0.00,0.09,-272.78,-272.84,-13,535,-949,24.1,25.4,3.1,24.1,25.8,3.3,5.73,1.71,2.7,30.4
2016-08-18 00:29:00,0.0,1.92023,0.00027,386.001,0.084,0.9785,0.0034,140.001,45.000,31973.10205,1.93929,390.687,40.132,45.068,45.000,0.00,0.09,-272.78,-272.83,-12,535,-948,24.1,25.5,3.1,24.2,25.7,3.3,5.73,1.82,2.7,30.4
2016-08-18 00:30:00,0.0,1.92006,0.00028,385.982,0.075,0.9819,0.0032,139.999,45.000,31976.38688,1.93922,390.688,40.170,45.068,45.000,0.00,0.09,-272.77,-272.83,-13,535,-949,24.1,25.5,3.1,24.2,25.8,3.3,5.73,1.94,2.7,30.4
2016-08-18 00:31:00,0.0,1.91936,0.00040,385.885,0.109,0.9847,0.0026,139.998,45.000,31981.55026,1.93859,390.607,40.183,45.068,45.000,0.00,0.09,-272.78,-272.84,-13,535,-949,24.1,25.6,3.2,24.2,25.8,3.4,5.73,1.69,2.7,30.4
2016-08-18 00:32:00,0.0,1.91920,0.00057,385.700,0.095,0.9941,0.0025,140.001,45.000,31984.34018,1.93857,390.454,40.185,45.068,45.000,0.00,0.09,-272.77,-272.84,-12,535,-949,24.1,25.9,3.3,24.2,26.0,3.5,5.73,1.84,2.7,30.5
2016-08-18 00:33:00,0.0,1.91925,0.00036,385.857,0.087,0.9898,0.0028,140.000,45.000,31986.51098,1.93856,390.603,40.187,45.068,45.000,0.00,0.09,-272.76,-272.83,-13,536,-949,24.1,25.7,3.3,24.2,26.0,3.5,5.73,1.92,2.7,30.5
2016-08-18 00:34:00,0.0,1.91884,0.00048,385.637,0.076,0.9991,0.0046,140.000,45.000,31989.29216,1.93833,390.425,40.188,45.068,45.000,0.00,0.10,-272.77,-272.83,-12,536,-949,24.1,26.0,3.4,24.2,26.1,3.6,5.73,1.68,2.7,30.5
2016-08-18 00:35:00,0.0,1.91886,0.00057,385.946,0.176,0.9953,0.0103,140.000,45.000,31990.23148,1.93825,390.708,40.188,45.068,45.000,0.00,0.09,-272.78,-272.84,-13,536,-949,24.1,25.8,3.3,24.2,26.2,3.6,5.73,1.87,2.7,30.5
2016-08-18 00:36:00,0.0,1.91876,0.00024,385.978,0.056,0.9928,0.0041,139.998,45.000,31988.81101,1.93814,390.738,40.188,45.068,45.000,0.00,0.09,-272.78,-272.83,-13,536,-949,24.1,25.8,3.3,24.2,26.0,3.5,5.73,1.90,2.7,30.5
2016-08-18 00:37:00,0.0,1.91853,0.00050,385.881,0.083,1.0016,0.0049,139.999,45.000,31992.62232,1.93807,390.681,40.187,45.068,45.000,0.00,0.10,-272.77,-272.83,-12,536,-949,24.1,26.1,3.5,24.2,26.1,3.6,5.73,1.68,2.7,30.5
2016-08-18 00:38:00,0.0,1.91840,0.00044,385.809,0.060,1.0155,0.0059,139.999,45.000,31993.84515,1.93821,390.678,40.187,45.068,45.000,0.00,0.09,-272.77,-272.84,-13,536,-949,24.1,26.4,3.7,24.2,26.5,3.7,5.73,1.90,2.7,30.5
2016-08-18 00:39:00,0.0,1.91821,0.00040,385.681,0.102,1.0287,0.0069,140.000,45.000,31996.44198,1.93827,390.612,40.185,45.068,45.000,0.00,0.09,-272.78,-272.84,-12,536,-949,24.1,26.8,3.8,24.2,26.8,3.9,5.73,1.87,2.7,30.6
2016-08-18 00:40:00,0.0,1.91813,0.00029,385.939,0.042,1.0068,0.0056,140.000,45.000,31996.30762,1.93775,390.766,40.188,45.068,45.000,0.00,0.10,-272.76,-272.83,-13,536,-949,24.2,26.1,3.5,24.2,26.5,3.8,5.73,1.70,2.7,30.5
2016-08-18 00:41:00,0.0,1.91800,0.00050,385.894,0.060,1.0028,0.0033,140.001,45.000,31997.91773,1.93758,390.704,40.189,45.068,45.000,0.00,0.09,-272.77,-272.84,-13,536,-949,24.2,26.0,3.4,24.3,26.2,3.6,5.73,1.93,2.7,30.5
2016-08-18 00:42:00,0.0,1.91763,0.00031,385.793,0.107,1.0126,0.0054,139.999,45.000,32001.16809,1.93736,390.645,40.202,45.068,45.000,0.00,0.09,-272.78,-272.84,-12,536,-949,24.1,26.3,3.6,24.3,26.3,3.7,5.73,1.84,2.7,30.5
2016-08-18 00:43:00,0.0,1.91775,0.00046,385.754,0.118,1.0031,0.0067,140.000,45.000,32002.23249,1.93734,390.565,40.213,45.068,45.000,0.00,0.09,-272.77,-272.83,-14,536,-949,24.2,26.1,3.5,24.3,26.2,3.7,5.73,1.70,2.7,30.5
2016-08-18 00:44:00,0.0,1.91704,0.00048,385.315,0.130,1.0282,0.0079,140.001,45.000,32001.48438,1.93708,390.246,40.194,45.068,45.000,0.00,0.09,-272.77,-272.83,-12,536,-949,24.2,26.8,3.9,24.3,26.6,3.9,5.73,1.95,2.6,30.5
2016-08-18 00:45:00,0.0,1.91648,0.00042,385.761,0.265,1.0186,0.0158,140.000,45.000,32000.91126,1.93635,390.633,40.188,45.068,45.000,0.00,0.09,-272.77,-272.84,-13,537,-949,24.1,26.5,3.6,24.3,26.8,3.9,5.73,1.81,2.7,30.5
2016-08-18 00:46:00,0.0,1.91766,0.00050,386.310,0.039,0.9726,0.0046,140.002,45.000,32000.04603,1.93658,390.972,40.183,45.068,45.000,0.00,0.09,-272.77,-272.84,-13,536,-949,24.1,25.3,3.0,24.2,25.6,3.3,5.73,1.72,2.7,30.5
2016-08-18 00:47:00,0.0,1.91770,0.00041,386.177,0.068,0.9858,0.0053,140.000,45.000,32002.06750,1.93687,390.902,40.176,45.068,45.000,0.00,0.09,-272.76,-272.83,-12,536,-949,24.1,25.7,3.2,24.3,25.5,3.3,5.73,1.96,2.6,30.5
2016-08-18 00:48:00,0.0,1.91849,0.00030,386.204,0.066,0.9886,0.0044,140.001,45.000,32000.21342,1.93775,390.947,40.174,45.068,45.000,0.00,0.10,-272.77,-272.84,-14,536,-949,24.1,25.7,3.2,24.3,25.7,3.4,5.73,1.78,2.7,30.5
2016-08-18 00:49:00,0.0,1.91822,0.00040,386.073,0.130,0.9985,0.0083,140.000,45.000,32002.62319,1.93767,390.863,40.182,45.068,45.001,0.00,0.09,-272.78,-272.85,-12,536,-949,24.1,26.0,3.4,24.3,25.9,3.4,5.73,1.74,2.7,30.5
2016-08-18 00:50:00,0.0,1.91808,0.00037,386.146,0.110,0.9938,0.0113,140.001,45.000,32001.86447,1.93747,390.909,40.186,45.068,45.000,0.00,0.09,-272.77,-272.83,-13,537,-949,24.1,25.9,3.3,24.3,26.0,3.5,5.73,1.96,2.6,30.6
2016-08-18 00:51:00,0.0,1.91793,0.00033,385.953,0.083,0.9967,0.0044,140.000,45.000,32001.97123,1.93736,390.732,40.187,45.068,45.000,0.00,0.10,-272.77,-272.84,-13,536,-949,24.1,26.0,3.4,24.3,25.9,3.4,5.73,1.76,2.7,30.6
2016-08-18 00:52:00,0.0,1.91778,0.00047,385.992,0.070,0.9903,0.0029,140.001,45.000,32003.09191,1.93711,390.739,40.178,45.068,45.000,0.00,0.09,-272.77,-272.85,-12,537,-949,24.1,25.8,3.3,24.2,25.8,3.4,5.73,1.75,2.6,30.6
2016-08-18 00:53:00,0.0,1.91769,0.00039,386.105,0.093,0.9851,0.0031,140.001,45.000,32003.66568,1.93686,390.828,40.156,45.068,45.000,0.00,0.09,-272.77,-272.85,-14,536,-949,24.1,25.7,3.2,24.2,25.7,3.3,5.73,1.96,2.6,30.6
2016-08-18 00:54:00,0.0,1.91807,0.00027,386.102,0.158,0.9820,0.0082,140.001,45.000,32003.96183,1.93719,390.808,40.156,45.068,45.000,0.00,0.10,-272.77,-272.83,-12,536,-949,24.0,25.7,3.2,24.2,25.5,3.3,5.73,1.75,2.6,30.6
2016-08-18 00:55:00,0.0,1.91730,0.00036,385.704,0.119,1.0093,0.0067,140.000,45.000,32004.90003,1.93699,390.544,40.186,45.068,45.000,0.00,0.09,-272.77,-272.84,-13,537,-949,24.0,26.5,3.6,24.2,26.1,3.5,5.73,1.76,2.7,30.6
2016-08-18 00:56:00,0.0,1.91748,0.00041,385.955,0.186,0.9928,0.0184,139.999,45.000,32004.97057,1.93678,390.709,40.188,45.068,45.000,0.00,0.09,-272.78,-272.83,-13,536,-949,24.0,25.9,3.3,24.2,26.1,3.5,5.73,1.96,2.7,30.5
2016-08-18 00:57:00,0.0,1.91756,0.00033,385.877,0.166,0.9895,0.0111,139.998,44.999,32006.39528,1.93687,390.615,40.176,45.067,44.999,0.00,0.09,-272.77,-272.83,-12,537,-949,24.0,26.0,3.3,24.2,25.7,3.3,5.73,1.70,2.7,30.5
2016-08-18 00:58:00,0.0,1.91771,0.00039,385.808,0.186,1.0032,0.0098,139.999,44.999,32006.17611,1.93725,390.622,40.112,45.066,44.998,0.00,0.09,-272.78,-272.84,-14,537,-949,23.9,26.5,3.5,24.2,26.1,3.5,5.73,1.87,2.6,30.5
2016-08-18 00:59:00,0.0,1.91749,0.00045,385.460,0.183,1.0180,0.0091,139.998,44.998,32002.47083,1.93736,390.341,40.007,45.065,44.996,0.00,0.09,-272.78,-272.84,-12,537,-948,23.8,26.9,3.7,24.1,26.6,3.7,5.73,1.81,2.7,30.5
2016-08-18 01:00:00,0.0,1.91710,0.00049,385.654,0.337,1.0097,0.0191,140.002,44.997,31999.48810,1.93676,390.480,39.856,45.063,44.994,0.00,0.09,-272.76,-272.84,-13,537,-948,23.8,26.7,3.5,24.1,26.7,3.8,5.73,1.82,2.6,30.4
2016-08-18 01:01:00,0.0,1.91790,0.00042,386.215,0.076,0.9687,0.0026,139.999,44.995,31993.00910,1.93675,390.855,39.652,45.061,44.992,0.00,0.10,-272.77,-272.84,-13,537,-948,23.7,25.6,2.9,24.0,25.8,3.2,5.73,1.76,2.6,30.3
2016-08-18 01:02:00,0.0,1.91805,0.00039,386.158,0.087,0.9725,0.0062,139.998,44.993,31985.92388,1.93701,390.818,39.394,45.060,44.991,0.00,0.09,-272.78,-272.85,-12,537,-947,23.7,25.8,3.0,24.0,25.7,3.1,5.73,1.95,2.6,30.2
2016-08-18 01:03:00,0.0,1.91796,0.00046,385.960,0.129,0.9857,0.0059,140.000,44.992,31977.28784,1.93715,390.683,39.134,45.059,44.991,0.00,0.09,-272.77,-272.84,-14,537,-947,23.6,26.3,3.1,23.9,26.0,3.2,5.73,1.64,2.6,30.1
2016-08-18 01:04:00,0.0,1.91754,0.00037,385.980,0.096,0.9864,0.0046,140.001,44.991,31969.22438,1.93675,390.707,38.906,45.059,44.991,0.00,0.10,-272.77,-272.83,-13,537,-946,23.6,26.4,3.2,23.8,26.3,3.3,5.73,1.96,2.6,29.9
2016-08-18 01:05:00,0.0,1.91728,0.00047,385.747,0.173,0.9939,0.0082,139.998,44.990,31960.02849,1.93665,390.516,38.672,45.060,44.992,0.00,0.09,-272.78,-272.85,-12,536,-946,23.5,26.8,3.3,23.8,26.4,3.3,5.73,1.79,2.6,29.9
2016-08-18 01:06:00,0.0,1.91697,0.00039,385.839,0.120,0.9968,0.0083,140.000,44.990,31951.04664,1.93639,390.611,38.464,45.060,44.992,0.00,0.09,-272.79,-272.84,-13,536,-946,23.5,26.9,3.3,23.7,26.7,3.5,5.73,1.72,2.6,29.8
2016-08-18 01:07:00,0.0,1.91676,0.00035,385.552,0.110,1.0051,0.0059,140.000,44.991,31940.56506,1.93634,390.366,38.282,45.061,44.993,0.00,0.09,-272.77,-272.83,-13,536,-945,23.4,27.3,3.4,23.7,27.0,3.6,5.73,1.99,2.6,29.7
2016-08-18 01:08:00,0.0,1.91686,0.00038,386.093,0.237,0.9738,0.0163,139.998,44.992,31931.32741,1.93583,390.752,38.108,45.062,44.994,0.00,0.10,-272.76,-272.84,-12,536,-945,23.3,26.3,2.9,23.6,26.6,3.3,5.73,1.66,2.6,29.6
2016-08-18 01:09:00,0.0,1.91726,0.00036,386.442,0.054,0.9441,0.0049,140.000,44.993,31924.96342,1.93562,390.965,37.951,45.063,44.995,0.00,0.09,-272.78,-272.83,-13,536,-945,23.2,25.7,2.5,23.5,25.7,2.7,5.73,1.89,2.6,29.5
2016-08-18 01:10:00,0.0,1.91655,0.00046,386.122,0.152,0.9610,0.0064,139.998,44.995,31919.59358,1.93525,390.730,37.812,45.064,44.996,0.00,0.09,-272.79,-272.84,-13,536,-945,23.1,26.3,2.7,23.5,25.9,2.8,5.73,1.86,2.6,29.4
2016-08-18 01:11:00,0.0,1.91630,0.00028,386.030,0.123,0.9703,0.0049,139.999,44.997,31912.21733,1.93520,390.670,37.698,45.066,44.997,0.00,0.09,-272.77,-272.82,-12,535,-945,23.1,26.7,2.9,23.4,26.4,3.0,5.73,1.72,2.6,29.3
2016-08-18 01:12:00,0.0,1.91653,0.00041,386.185,0.092,0.9607,0.0053,139.998,44.999,31909.44894,1.93522,390.793,37.610,45.067,44.999,0.00,0.09,-272.78,-272.84,-13,535,-945,23.0,26.5,2.7,23.4,26.2,2.9,5.73,1.98,2.6,29.2
2016-08-18 01:13:00,0.0,1.91578,0.00052,385.903,0.106,0.9760,0.0045,140.004,45.001,31913.78350,1.93481,390.573,37.540,45.069,45.000,0.00,0.09,-272.77,-272.84,-12,535,-945,23.0,27.1,3.0,23.4,26.6,3.1,5.73,1.66,2.6,29.1
2016-08-18 01:14:00,0.0,1.91501,0.00038,386.031,0.071,0.9718,0.0053,139.999,45.002,31915.26421,1.93388,390.688,37.517,45.070,45.001,0.00,0.09,-272.77,-272.84,-12,534,-945,22.9,27.0,2.9,23.4,26.7,3.1,5.73,2.01,2.5,29.1
2016-08-18 01:15:00,0.0,1.91491,0.00032,385.901,0.149,0.9706,0.0078,140.004,45.004,31919.11433,1.93378,390.548,37.525,45.071,45.002,0.00,0.09,-272.77,-272.85,-13,535,-945,22.9,27.0,2.9,23.3,26.6,3.1,5.73,1.65,2.5,29.0
2016-08-18 01:16:00,0.0,1.91496,0.00034,385.895,0.106,0.9688,0.0077,139.999,45.004,31919.69456,1.93378,390.535,37.562,45.071,45.002,0.00,0.09,-272.78,-272.85,-11,534,-945,22.9,27.1,3.0,23.4,26.7,3.1,5.73,2.00,2.5,29.0
2016-08-18 01:17:00,0.0,1.91522,0.00043,385.584,0.175,0.9845,0.0054,140.000,45.005,31921.03866,1.93439,390.295,37.608,45.071,45.002,0.00,0.09,-272.77,-272.84,-13,534,-945,22.9,27.5,3.2,23.4,27.0,3.3,5.73,1.66,2.5,29.0
2016-08-18 01:18:00,0.0,1.91481,0.00026,386.134,0.162,0.9542,0.0146,140.000,45.005,31926.49370,1.93337,390.703,37.664,45.071,45.002,0.00,0.09,-272.78,-272.84,-11,534,-945,22.9,26.6,2.7,23.3,26.7,3.1,5.73,2.00,2.5,29.1
2016-08-18 01:19:00,0.0,1.91433,0.00057,386.028,0.162,0.9470,0.0058,140.000,45.005,31932.04175,1.93273,390.560,37.729,45.071,45.002,0.00,0.09,-272.78,-272.84,-13,534,-945,22.9,26.4,2.6,23.3,26.1,2.8,5.73,1.66,2.5,29.0
2016-08-18 01:20:00,0.0,1.91455,0.00049,386.227,0.124,0.9334,0.0066,139.998,45.005,31934.72484,1.93263,390.700,37.777,45.072,45.003,0.00,0.09,-272.79,-272.84,-12,534,-945,22.9,26.0,2.4,23.3,25.9,2.7,5.73,2.00,2.5,29.1
2016-08-18 01:21:00,0.0,1.91450,0.00050,385.732,0.161,0.9511,0.0053,140.000,45.004,31938.52458,1.93301,390.280,37.816,45.072,45.003,0.00,0.09,-272.77,-272.84,-13,534,-945,22.9,26.6,2.7,23.3,26.0,2.8,5.73,1.66,2.5,29.1
2016-08-18 01:22:00,0.0,1.91365,0.00038,386.028,0.156,0.9518,0.0065,139.997,45.004,31941.33046,1.93213,390.578,37.880,45.072,45.003,0.00,0.09,-272.78,-272.84,-12,534,-946,22.9,26.6,2.7,23.3,26.3,2.9,5.73,2.00,2.5,29.1
2016-08-18 01:23:00,0.0,1.91409,0.00036,386.106,0.110,0.9473,0.0024,139.998,45.004,31943.38248,1.93246,390.645,37.958,45.072,45.003,0.00,0.09,-272.78,-272.84,-12,534,-946,22.9,26.5,2.7,23.4,26.2,2.8,5.73,1.67,2.5,29.2
2016-08-18 01:24:00,0.0,1.91382,0.00054,386.000,0.078,0.9562,0.0030,140.000,45.003,31946.38929,1.93241,390.573,38.047,45.072,45.003,0.00,0.09,-272.77,-272.83,-12,534,-946,23.0,26.7,2.8,23.4,26.4,2.9,5.73,1.96,2.5,29.2
2016-08-18 01:25:00,0.0,1.91356,0.00051,385.670,0.219,0.9653,0.0088,139.998,45.003,31945.16469,1.93234,390.298,38.153,45.072,45.003,0.00,0.09,-272.78,-272.83,-12,534,-946,23.0,27.1,3.0,23.3,26.5,3.0,5.73,1.72,2.5,29.2
2016-08-18 01:26:00,0.0,1.91261,0.00042,385.654,0.188,0.9718,0.0101,140.000,45.003,31946.73218,1.93150,390.296,38.256,45.072,45.003,0.00,0.09,-272.78,-272.85,-12,534,-946,23.0,27.2,3.1,23.4,26.9,3.2,5.73,1.88,2.5,29.2
2016-08-18 01:27:00,0.0,1.91247,0.00044,385.907,0.074,0.9541,0.0042,139.999,45.002,31949.89813,1.93099,390.473,38.355,45.072,45.002,0.00,0.09,-272.78,-272.84,-12,534,-946,23.0,26.7,2.8,23.4,26.5,3.0,5.73,1.80,2.5,29.3
2016-08-18 01:28:00,0.0,1.91238,0.00036,385.830,0.100,0.9536,0.0044,139.998,45.002,31952.04731,1.93089,390.397,38.434,45.071,45.002,0.00,0.09,-272.78,-272.84,-12,534,-946,23.0,26.7,2.8,23.4,26.4,3.0,5.73,1.78,2.5,29.3
2016-08-18 01:29:00,0.0,1.91276,0.00043,385.901,0.173,0.9523,0.0098,140.002,45.002,31953.25247,1.93121,390.452,38.520,45.071,45.002,0.00,0.09,-272.78,-272.85,-12,534,-946,23.0,26.6,2.7,23.4,26.4,3.0,5.73,1.90,2.5,29.3
2016-08-18 01:30:00,0.0,1.91260,0.00042,385.975,0.056,0.9430,0.0037,140.001,45.002,31952.22591,1.93091,390.486,38.590,45.071,45.002,0.00,0.09,-272.77,-272.84,-12,534,-946,23.0,26.3,2.6,23.4,26.1,2.8,5.73,1.67,2.5,29.3
2016-08-18 01:31:00,0.0,1.91263,0.00030,386.128,0.080,0.9307,0.0065,139.998,45.002,31953.21446,1.93067,390.583,38.684,45.071,45.002,0.00,0.09,-272.77,-272.84,-12,534,-947,23.0,25.9,2.4,23.4,25.8,2.7,5.73,1.97,2.5,29.3
2016-08-18 01:32:00,0.0,1.91242,0.00039,385.746,0.212,0.9381,0.0065,139.999,45.002,31955.57137,1.93061,390.241,38.778,45.071,45.002,0.00,0.09,-272.78,-272.84,-12,534,-947,23.0,26.1,2.6,23.4,25.8,2.6,5.73,1.65,2.5,29.3
2016-08-18 01:33:00,0.0,1.91233,0.00036,386.026,0.260,0.9310,0.0129,140.000,45.002,31956.38957,1.93040,390.468,38.873,45.070,45.002,0.00,0.09,-272.79,-272.84,-12,534,-947,23.0,25.8,2.4,23.4,25.8,2.7,5.73,1.96,2.5,29.3
2016-08-18 01:34:00,0.0,1.91188,0.00040,386.061,0.162,0.9163,0.0059,140.000,45.002,31957.61092,1.92965,390.449,38.953,45.070,45.001,0.00,0.09,-272.78,-272.84,-12,534,-947,23.1,25.4,2.2,23.4,25.2,2.4,5.73,1.70,2.5,29.4
2016-08-18 01:35:00,0.0,1.91176,0.00036,386.007,0.137,0.9228,0.0059,139.999,45.001,31959.93776,1.92964,390.413,39.025,45.070,45.001,0.00,0.09,-272.78,-272.84,-12,534,-947,23.1,25.5,2.3,23.4,25.4,2.5,5.73,1.89,2.5,29.4
2016-08-18 01:36:00,0.0,1.91195,0.00040,386.299,0.108,0.9043,0.0053,139.997,45.001,31960.58511,1.92946,390.623,39.100,45.070,45.001,0.00,0.09,-272.79,-272.84,-12,534,-947,23.1,25.0,2.0,23.4,25.0,2.3,5.73,1.82,2.5,29.4
2016-08-18 01:37:00,0.0,1.91163,0.00036,386.435,0.071,0.8967,0.0027,139.999,45.001,31963.08473,1.92901,390.724,39.163,45.070,45.001,0.00,0.09,-272.77,-272.84,-12,534,-947,23.1,24.8,1.9,23.4,24.7,2.1,5.73,1.76,2.5,29.5
2016-08-18 01:38:00,0.0,1.91126,0.00034,386.122,0.166,0.9107,0.0078,140.003,45.001,31964.45465,1.92890,390.481,39.215,45.070,45.001,0.00,0.09,-272.78,-272.83,-12,534,-947,23.2,25.1,2.1,23.4,24.9,2.2,5.73,1.94,2.5,29.5
2016-08-18 01:39:00,0.0,1.91129,0.00041,385.717,0.254,0.9215,0.0077,139.998,45.001,31962.36045,1.92913,390.131,39.271,45.070,45.001,0.00,0.09,-272.78,-272.84,-12,534,-947,23.2,25.4,2.3,23.4,25.2,2.4,5.73,1.67,2.5,29.5
2016-08-18 01:40:00,0.0,1.91131,0.00040,386.005,0.333,0.9179,0.0139,140.001,45.001,31963.89327,1.92909,390.381,39.320,45.070,45.001,0.00,0.09,-272.78,-272.84,-12,534,-947,23.2,25.2,2.2,23.5,25.2,2.4,5.73,1.98,2.5,29.5
2016-08-18 01:41:00,0.0,1.91177,0.00040,386.180,0.118,0.9079,0.0047,139.999,45.001,31963.79352,1.92934,390.524,39.376,45.070,45.001,0.00,0.09,-272.77,-272.84,-12,534,-947,23.2,25.0,2.0,23.4,24.9,2.2,5.73,1.67,2.5,29.5
2016-08-18 01:42:00,0.0,1.91123,0.00040,385.668,0.223,0.9313,0.0086,139.998,45.001,31965.54933,1.92930,390.117,39.429,45.070,45.001,0.00,0.09,-272.78,-272.85,-12,534,-947,23.2,25.6,2.4,23.5,25.3,2.5,5.73,1.90,2.5,29.5
2016-08-18 01:43:00,0.0,1.91092,0.00052,385.283,0.290,0.9433,0.0089,140.003,45.001,31967.01721,1.92920,389.796,39.479,45.070,45.001,0.00,0.09,-272.78,-272.84,-12,534,-947,23.2,26.0,2.7,23.5,25.7,2.7,5.73,1.78,2.5,29.6
2016-08-18 01:44:00,0.0,1.91027,0.00055,385.328,0.446,0.9470,0.0187,140.003,45.001,31967.35567,1.92862,389.845,39.541,45.070,45.001,0.00,0.09,-272.77,-272.84,-12,534,-948,23.2,26.0,2.6,23.5,26.1,2.9,5.73,1.75,2.6,29.6
2016-08-18 01:45:00,0.0,1.91058,0.00064,385.956,0.180,0.9153,0.0089,139.999,45.001,31966.06042,1.92834,390.328,39.562,45.070,45.001,0.00,0.09,-272.78,-272.84,-13,534,-948,23.2,25.1,2.1,23.5,25.2,2.5,5.73,1.92,2.5,29.6
2016-08-18 01:46:00,0.0,1.90866,0.00044,386.233,0.278,0.8959,0.0160,139.999,45.001,31966.16013,1.92604,390.509,39.563,45.069,45.001,0.00,0.09,-272.78,-272.84,-12,534,-948,23.2,24.4,1.8,23.5,24.7,2.2,5.73,1.65,2.5,29.6